[[{"header":{"parameterUnit":"m.s-1","parameterCategory":1,"la1":30.2991,"la2":30.254,"lo1":-89.0895,"lo2":-89.0444,"dy":0.0017,"dx":0.0017,"nx":28,"ny":28,"refTime":"2023-10-07T21:00:00:Z","depth":0,"parameterNumber":2,"parameterNumberName":"U-component_of_WINDS"},"data":[0,0,0,0,0,0,0,0,0,0,0,0,0,0,0,0,0,0,0,0,0,0,0,0,0,0,0,0,0,0,0,0,0,0,0,0,0,0,0,0,0,0,0,0,0,0,0,0,0,0,0,0,0,0,0,0,0,0,-3.7337,-3.7338,0,-3.7362,-3.7362,-3.7362,-3.7292,-3.7289,-3.7287,-3.7285,-3.7308,-3.7311,-3.7313,0,0,0,0,0,0,0,0,0,0,0,0,0,-3.7228,-3.723,-3.7337,-3.7338,-3.7338,-3.7362,-3.7362,-3.7362,-3.7292,-3.7289,-3.7287,-3.7284,-3.7307,-3.7311,-3.7314,0,0,0,0,0,0,0,0,0,0,0,0,0,-3.7266,-3.7231,-3.7337,-3.7306,-3.7303,-3.7362,-3.7362,-3.7362,-3.7293,-3.7289,-3.7286,-3.7283,-3.7306,-3.731,-3.7314,-3.7404,0,0,-3.7326,-3.7328,0,0,0,0,0,0,0,0,-3.7264,-3.727,-3.731,-3.7308,-3.7305,-3.732,-3.7332,-3.7376,-3.7293,-3.7297,-3.7285,-3.7281,-3.7315,-3.7318,-3.733,-3.7405,-3.7406,-3.7327,-3.7329,-3.7331,-3.7332,0,0,0,0,0,0,0,-3.7262,-3.7269,-3.7347,-3.7311,-3.7308,-3.729,-3.7292,-3.734,-3.7324,-3.7296,-3.7291,-3.7295,-3.7313,-3.7326,-3.733,-3.7406,-3.7326,-3.733,-3.7332,-3.7334,-3.7556,-3.7559,0,0,0,0,0,0,-3.7263,-3.7267,-3.7346,-3.7348,-3.7276,-3.7294,-3.7296,-3.7319,-3.7323,-3.732,-3.7298,-3.7292,-3.7321,-3.7325,-3.733,-3.7436,-3.7331,-3.7334,-3.7337,-3.7552,-3.7557,-3.7561,0,0,0,0,0,0,-3.7261,-3.7271,-3.7345,-3.7306,-3.7314,-3.73,-3.7325,-3.7321,-3.7334,-3.7324,-3.7321,-3.7314,-3.7318,-3.7325,-3.7386,-3.7435,-3.7336,-3.734,-3.7548,-3.7554,-3.7559,-3.7647,0,0,0,0,0,0,-3.7258,-3.7271,-3.7305,-3.7307,-3.7317,-3.7402,-3.7328,-3.7324,-3.7341,-3.7333,-3.7339,-3.7336,-3.7316,-3.7381,-3.739,-3.7439,-3.7343,-3.7544,-3.7551,-3.7557,-3.764,-3.7655,-3.7668,0,0,0,0,0,-3.7255,-3.7329,-3.7307,-3.7317,-3.7359,-3.7405,-3.741,-3.7386,-3.7345,-3.738,-3.7373,-3.7336,-3.7428,-3.7387,-3.7397,-3.7448,-3.7541,-3.7549,-3.7556,-3.7634,-3.7652,-3.7667,0,0,0,0,0,0,-3.7332,-3.7328,-3.7305,-3.7382,-3.7394,-3.7393,-3.7435,-3.7406,-3.7429,-3.7421,-3.7389,-3.7391,-3.7459,-3.7459,-3.7414,-3.7535,-3.7477,-3.7488,-3.7533,-3.755,-3.7564,-3.7562,-3.7346,0,0,0,0,0,-3.7358,-3.7396,-3.739,-3.7459,-3.7466,-3.745,-3.7469,-3.7449,-3.746,-3.7465,-3.7463,-3.7475,-3.7507,-3.7528,-3.7556,-3.7639,-3.7639,-3.7679,-3.7693,-3.7705,-3.7714,-3.7758,-3.7776,-3.7587,-3.7587,-3.7586,0,0,-3.7412,-3.7415,-3.744,-3.7474,-3.7482,-3.7521,-3.7455,-3.7499,-3.7528,-3.7471,-3.753,-3.7529,-3.754,-3.7613,-3.7645,-3.7616,-3.7766,-3.7715,-3.7724,-3.7727,-3.7768,-3.7786,-3.7802,-3.7592,-3.7591,-3.759,0,0,-3.7531,-3.7537,-3.7594,-3.7603,-3.7616,-3.7604,-3.7618,-3.7621,-3.7619,-3.7677,-3.7636,-3.7669,-3.7724,-3.7734,-3.7746,-3.7869,-3.7836,-3.7879,-3.7952,-3.7995,-3.801,-3.8023,-3.8067,-3.8083,-3.7888,-3.7888,-3.7888,0,-3.7596,-3.7655,-3.7628,-3.7675,-3.7691,-3.7643,-3.7701,-3.771,-3.7731,-3.7743,-3.771,-3.7778,-3.7782,-3.7857,-3.7887,-3.7898,-3.7913,-3.7878,-3.801,-3.8023,-3.8035,-3.8077,-3.8093,-3.7893,-3.7893,-3.7892,-3.7892,0,-3.7735,-3.7776,-3.7821,-3.7844,-3.7864,-3.7917,-3.7897,-3.7922,-3.79,-3.7892,-3.7952,-3.7955,-3.7983,-3.7999,-3.7978,-3.8071,-3.8053,-3.8016,-3.7957,-3.8059,-3.8097,-3.8113,-3.7901,-3.7899,-3.7897,-3.7896,0,0,-3.7904,-3.791,-3.7928,-3.7937,-3.7947,-3.7978,-3.8028,-3.8056,-3.8078,-3.8094,-3.8135,-3.8183,-3.8148,-3.8162,-3.8142,-3.818,-3.8277,-3.8138,-3.8137,-3.8164,-3.838,-3.8409,-3.8428,-3.8255,-3.8258,-3.826,-3.8379,0,-3.8021,-3.8108,-3.8086,-3.8172,-3.821,-3.8164,-3.8207,-3.8218,-3.8212,-3.8242,-3.8234,-3.8269,-3.8221,-3.8229,-3.8265,-3.8258,-3.832,-3.8249,-3.8293,-3.8295,-3.8293,-3.8448,-3.8478,-3.859,-3.8394,-3.8397,-3.8399,0,-3.8171,-3.8193,-3.8284,-3.8288,-3.8303,-3.8343,-3.8367,-3.8396,-3.8407,-3.84,-3.8416,-3.8388,-3.8436,-3.8377,-3.8444,-3.8396,-3.8412,-3.8412,-3.8415,-3.8419,-3.8354,-3.8456,-3.8625,-3.8643,-3.8422,-3.842,-3.8419,0,-3.8286,-3.8338,-3.8399,-3.8409,-3.8415,-3.8444,-3.8448,-3.8455,-3.8474,-3.8495,-3.8506,-3.8532,-3.8547,-3.8567,-3.8547,-3.8505,-3.8617,-3.8556,-3.8612,-3.8613,-3.8638,-3.8637,-3.8813,-3.8648,-3.8648,-3.8648,-3.8647,0,-3.842,-3.8477,-3.8451,-3.8489,-3.8552,-3.8524,-3.8587,-3.8585,-3.8592,-3.8628,-3.859,-3.8624,-3.8595,-3.8626,-3.861,-3.8668,-3.8675,-3.867,-3.8665,-3.8674,-3.8675,-3.8685,-3.8677,-3.8652,-3.8651,-3.865,-3.8649,0,-3.856,-3.8544,-3.8608,-3.8609,-3.861,-3.8656,-3.8656,-3.8691,-3.8681,-3.8728,-3.8737,-3.8722,-3.8758,-3.8739,-3.8775,-3.8764,-3.884,-3.8824,-3.8837,-3.8833,-3.8891,-3.8886,-3.908,-3.9104,-3.8923,-3.8925,-3.8926,0,-3.8647,-3.869,-3.8695,-3.8717,-3.8724,-3.8759,-3.8778,-3.8753,-3.8774,-3.8789,-3.8822,-3.8854,-3.8879,-3.8937,-3.8929,-3.8957,-3.8942,-3.9008,-3.8946,-3.8953,-3.8944,-3.8942,-3.8946,-3.9021,-3.9023,-3.9025,-3.9026,0,-3.8804,-3.8794,-3.8823,-3.885,-3.8874,-3.8894,-3.891,-3.893,-3.8905,-3.893,-3.8967,-3.8986,-3.9023,-3.9055,-3.9079,-3.9082,-3.905,-3.9046,-3.906,-3.907,-3.9076,-3.9074,-3.8872,-3.9041,-3.904,-3.9039,-3.9038,-3.9037,-3.892,-3.8956,-3.8966,-3.9,-3.901,-3.9026,-3.9059,-3.9054,-3.9084,-3.9113,-3.9095,-3.9138,-3.9147,-3.9175,-3.9182,-3.9215,-3.9188,-3.9209,-3.9215,-3.9221,-3.9229,-3.907,-3.9219,-3.9218,-3.9218,-3.9217,-3.9217,0,-3.9075,-3.9079,-3.9111,-3.9135,-3.9162,-3.913,-3.9146,-3.9171,-3.9209,-3.922,-3.9245,-3.9287,-3.9318,-3.9312,-3.9341,-3.9368,-3.9354,-3.9376,-3.9374,-3.9375,-3.925,-3.9235,-3.9387,-3.9387,-3.9387,-3.9387,-3.9387,-3.9387,-3.9159,-3.922,-3.9211,-3.9275,-3.9278,-3.9321,-3.9333,-3.9347,-3.9356,-3.9405,-3.9431,-3.9427,-3.9432,-3.946,-3.9487,-3.9484,-3.9497,-3.9525,-3.9517,-3.9401,-3.9384,-3.9368,-3.9354,-3.9527,-3.9528,-3.9639,-3.964,-3.9641]},{"header":{"parameterUnit":"m.s-1","parameterCategory":1,"la1":30.2991,"la2":30.254,"lo1":-89.0895,"lo2":-89.0444,"dy":0.0017,"dx":0.0017,"nx":28,"ny":28,"refTime":"2023-10-07T21:00:00:Z","depth":0,"parameterNumber":3,"parameterNumberName":"V-component_of_WINDS"},"data":[0,0,0,0,0,0,0,0,0,0,0,0,0,0,0,0,0,0,0,0,0,0,0,0,0,0,0,0,0,0,0,0,0,0,0,0,0,0,0,0,0,0,0,0,0,0,0,0,0,0,0,0,0,0,0,0,0,0,-4.2151,-4.2152,0,-4.221,-4.221,-4.2211,-4.2165,-4.2163,-4.2161,-4.2159,-4.2217,-4.2221,-4.2224,0,0,0,0,0,0,0,0,0,0,0,0,0,-4.1997,-4.2,-4.2151,-4.2152,-4.2152,-4.221,-4.221,-4.2211,-4.2165,-4.2163,-4.2161,-4.2158,-4.2216,-4.222,-4.2224,0,0,0,0,0,0,0,0,0,0,0,0,0,-4.2061,-4.2001,-4.2151,-4.2136,-4.2136,-4.2209,-4.221,-4.2211,-4.2166,-4.2163,-4.216,-4.2157,-4.2215,-4.222,-4.2225,-4.2315,0,0,-4.224,-4.2243,0,0,0,0,0,0,0,0,-4.2057,-4.2066,-4.2138,-4.2138,-4.2137,-4.2177,-4.2177,-4.2246,-4.2167,-4.2154,-4.2159,-4.2156,-4.2206,-4.2212,-4.2229,-4.2318,-4.232,-4.2241,-4.2244,-4.2246,-4.2248,0,0,0,0,0,0,0,-4.2053,-4.2063,-4.2174,-4.2139,-4.2138,-4.2126,-4.2132,-4.219,-4.2196,-4.2155,-4.2152,-4.216,-4.2205,-4.2225,-4.223,-4.2321,-4.2241,-4.2245,-4.2248,-4.225,-4.2487,-4.249,0,0,0,0,0,0,-4.205,-4.206,-4.2172,-4.2176,-4.2089,-4.2132,-4.2138,-4.2167,-4.2195,-4.2197,-4.2162,-4.2157,-4.2217,-4.2224,-4.2232,-4.234,-4.2246,-4.2251,-4.2254,-4.2484,-4.2488,-4.2491,0,0,0,0,0,0,-4.2047,-4.206,-4.217,-4.2117,-4.213,-4.2137,-4.217,-4.217,-4.2189,-4.2201,-4.2201,-4.2181,-4.2215,-4.2225,-4.2295,-4.2341,-4.2253,-4.2258,-4.248,-4.2485,-4.2489,-4.2556,0,0,0,0,0,0,-4.2043,-4.206,-4.2095,-4.2118,-4.2133,-4.2233,-4.2173,-4.2173,-4.2198,-4.2192,-4.2218,-4.222,-4.2214,-4.2288,-4.23,-4.2347,-4.2262,-4.2476,-4.2482,-4.2488,-4.255,-4.2563,-4.2574,0,0,0,0,0,-4.2037,-4.2111,-4.2097,-4.211,-4.2177,-4.2235,-4.2244,-4.2236,-4.2202,-4.2237,-4.2244,-4.2219,-4.2334,-4.2295,-4.2309,-4.2358,-4.2473,-4.248,-4.2487,-4.2545,-4.256,-4.2574,0,0,0,0,0,0,-4.2091,-4.2114,-4.2098,-4.2182,-4.2207,-4.2228,-4.2271,-4.2253,-4.2288,-4.2281,-4.2269,-4.2276,-4.2349,-4.236,-4.2317,-4.2446,-4.2398,-4.2408,-4.2437,-4.2452,-4.2464,-4.246,-4.2266,0,0,0,0,0,-4.2113,-4.2159,-4.2176,-4.2248,-4.2261,-4.2264,-4.2289,-4.2281,-4.2307,-4.2317,-4.233,-4.2355,-4.2397,-4.2425,-4.2464,-4.2551,-4.2556,-4.2591,-4.2603,-4.2613,-4.2622,-4.2669,-4.2685,-4.2515,-4.2515,-4.2515,0,0,-4.2159,-4.2176,-4.2206,-4.2259,-4.2278,-4.2326,-4.2274,-4.2326,-4.2361,-4.2325,-4.2392,-4.2402,-4.243,-4.2509,-4.2544,-4.252,-4.267,-4.2622,-4.263,-4.2634,-4.2678,-4.2694,-4.2708,-4.252,-4.2519,-4.2518,0,0,-4.2266,-4.2284,-4.2346,-4.2366,-4.2395,-4.2396,-4.2411,-4.2435,-4.244,-4.2508,-4.2481,-4.2522,-4.2595,-4.2615,-4.2635,-4.275,-4.2728,-4.2763,-4.2825,-4.2871,-4.2884,-4.2896,-4.2937,-4.2952,-4.2772,-4.2772,-4.2772,0,-4.2318,-4.2389,-4.238,-4.2435,-4.2458,-4.2428,-4.2491,-4.251,-4.2551,-4.2568,-4.254,-4.263,-4.2647,-4.273,-4.2758,-4.2775,-4.2792,-4.276,-4.2883,-4.2895,-4.2906,-4.2945,-4.2961,-4.2776,-4.2776,-4.2775,-4.2775,0,-4.2453,-4.2502,-4.2549,-4.2589,-4.2618,-4.2677,-4.2675,-4.2706,-4.2695,-4.2699,-4.2767,-4.2786,-4.2828,-4.2847,-4.2837,-4.2929,-4.2914,-4.2885,-4.2836,-4.2927,-4.2963,-4.2978,-4.2782,-4.278,-4.2779,-4.2778,0,0,-4.2596,-4.2631,-4.2648,-4.2666,-4.2696,-4.2734,-4.279,-4.2832,-4.2859,-4.2887,-4.2934,-4.2996,-4.297,-4.2993,-4.2984,-4.3024,-4.3114,-4.299,-4.2991,-4.3013,-4.3217,-4.3239,-4.3256,-4.3099,-4.3102,-4.3104,-4.3215,0,-4.2705,-4.2804,-4.2797,-4.2891,-4.2937,-4.2908,-4.2957,-4.2981,-4.2986,-4.3025,-4.303,-4.3074,-4.3036,-4.3049,-4.3088,-4.3095,-4.3155,-4.3087,-4.3143,-4.3145,-4.3137,-4.3276,-4.3299,-4.3403,-4.3229,-4.3232,-4.3233,0,-4.2845,-4.288,-4.2978,-4.3001,-4.302,-4.3065,-4.3103,-4.314,-4.3166,-4.3166,-4.3192,-4.3177,-4.3233,-4.3182,-4.3259,-4.3213,-4.3235,-4.3242,-4.3246,-4.3251,-4.3195,-4.3285,-4.3435,-4.3451,-4.3256,-4.3254,-4.3252,0,-4.2941,-4.3012,-4.308,-4.3096,-4.3124,-4.3156,-4.3169,-4.3192,-4.3218,-4.325,-4.3267,-4.3305,-4.3327,-4.3357,-4.3352,-4.3315,-4.3431,-4.3379,-4.3433,-4.3433,-4.3459,-4.3458,-4.3616,-4.3472,-4.3472,-4.3472,-4.3472,0,-4.3064,-4.3125,-4.3123,-4.3165,-4.3233,-4.3223,-4.329,-4.3299,-4.332,-4.3363,-4.334,-4.338,-4.3371,-4.3411,-4.3407,-4.3472,-4.3482,-4.3484,-4.3482,-4.3486,-4.3486,-4.3501,-4.3494,-4.3476,-4.3475,-4.3474,-4.3474,0,-4.3182,-4.3183,-4.3256,-4.3277,-4.3283,-4.3332,-4.335,-4.3389,-4.3392,-4.3447,-4.3459,-4.3463,-4.3509,-4.3507,-4.3559,-4.3556,-4.3636,-4.3626,-4.3628,-4.3626,-4.368,-4.3675,-4.3854,-4.3877,-4.3718,-4.3719,-4.3721,0,-4.3261,-4.3308,-4.3334,-4.3361,-4.3377,-4.3421,-4.3447,-4.3439,-4.3467,-4.35,-4.3535,-4.3579,-4.3614,-4.3688,-4.3696,-4.3735,-4.3726,-4.3786,-4.3732,-4.3734,-4.3728,-4.3725,-4.373,-4.3797,-4.3798,-4.38,-4.3801,0,-4.3401,-4.3399,-4.3438,-4.3478,-4.351,-4.354,-4.3568,-4.3592,-4.3586,-4.3619,-4.3666,-4.3693,-4.3746,-4.379,-4.3828,-4.384,-4.382,-4.3818,-4.3832,-4.3838,-4.3837,-4.3839,-4.3658,-4.3814,-4.3813,-4.3812,-4.3811,-4.3811,-4.3502,-4.3542,-4.3567,-4.3611,-4.3632,-4.3658,-4.3696,-4.3704,-4.3744,-4.3787,-4.3779,-4.3832,-4.3855,-4.3904,-4.392,-4.3961,-4.3939,-4.396,-4.3966,-4.3971,-4.3978,-4.383,-4.3967,-4.3967,-4.3967,-4.3966,-4.3966,0,-4.3641,-4.3655,-4.3696,-4.3737,-4.3771,-4.3749,-4.3779,-4.381,-4.3856,-4.3881,-4.3915,-4.3969,-4.4011,-4.4022,-4.4063,-4.4093,-4.4085,-4.4104,-4.4102,-4.4105,-4.3994,-4.3978,-4.411,-4.411,-4.411,-4.411,-4.411,-4.411,-4.3717,-4.3785,-4.3786,-4.3862,-4.3876,-4.3928,-4.3947,-4.3971,-4.399,-4.4052,-4.4087,-4.4094,-4.4113,-4.4154,-4.4192,-4.4194,-4.421,-4.4233,-4.4231,-4.4128,-4.4113,-4.4099,-4.4084,-4.4237,-4.4237,-4.4339,-4.434,-4.4341]}]]